STARLINK-11319 [DTC] (61251 NORAD) Tracking and Keplerian Element Data

This shows tracking and keplerian element data for the satellite.

Feedback or suggestion? Click here.




ElementValue
Catalog61251
NameSTARLINK-11319 [DTC]
Epoch Orbit403
Epoch Day286.91668981
Epoch Year2024
RAAN65.1222
Inclination53.1634
Eccentricity0.0001072
Argument of Perigee129.1098
Mean Anonmoly290.7602
Mean Motion15.78043353
Decay Rate0.00020017
L11 61251U 24175J 24286.91668981 .00020017 00000+0 11892-3 0 9997
L22 61251 53.1634 65.1222 0001072 129.1098 290.7602 15.78043353 4039



Live tracking and technical data element details for STARLINK-11319 [DTC] (NORAD 61251). STARLINK-11319 [DTC] can be tracked NOW for your location showing map with azimuth and elevation plus other details from your city location.







IsCatalogInMostPopularTable: catalog: 61251, numindb: 24
Update: records affected: 1



GetName: 61251 STARLINK-11319 [DTC]

Hit Count: updated at: Wed, 04 Dec 2024 10:03:58 GMT